Location: Ferchesar
(52.6477°N, 12.4298°E)
Time: 07:35:38
(UTC+02:00)

TIGRISAT - Visible Passes

Search period start: 18 October 2021 00:00
Search period end: 28 October 2021 00:00
Orbit: 605 x 687 km, 97.7° (Epoch: 17 October)

Date Brightness Start Highest point End Pass type
(mag) Time Alt. Az. Time Alt. Az. Time Alt. Az.
18 Oct ? 05:39:32 10° E 05:42:37 18° NE 05:45:41 10° NNE visible
18 Oct ? 19:00:40 10° NE 19:03:08 14° E 19:05:34 10° ESE visible
18 Oct ? 20:35:54 10° NNE 20:40:29 84° WNW 20:44:55 10° SSW visible
18 Oct ? 22:13:52 10° NNW 22:16:27 15° NW 22:19:00 10° W visible
19 Oct ? 06:03:53 10° ESE 06:07:46 26° ENE 06:11:38 10° N visible
19 Oct ? 19:25:14 10° NE 19:28:52 23° E 19:32:25 10° SE visible
19 Oct ? 21:01:25 10° N 21:05:50 51° WNW 21:10:07 10° SW visible
20 Oct ? 06:28:37 10° SE 06:33:00 40° ENE 06:37:21 10° N visible
20 Oct ? 19:50:16 10° NNE 19:54:30 38° E 19:58:37 10° SSE visible
20 Oct ? 21:27:06 10° N 21:31:06 31° WNW 21:35:00 10° SW visible
21 Oct ? 05:20:26 10° ENE 05:22:29 13° NE 05:24:31 10° NNE visible
21 Oct ? 06:53:40 10° SSE 06:58:18 65° ENE 07:02:56 10° N visible
21 Oct ? 20:15:32 10° NNE 20:20:02 65° E 20:24:23 10° S visible
21 Oct ? 21:52:57 10° N 21:56:17 21° WNW 21:59:32 10° WSW visible
22 Oct ? 05:44:17 10° ESE 05:47:33 19° ENE 05:50:49 10° NNE visible
22 Oct ? 19:05:28 10° NE 19:08:12 16° E 19:10:53 10° SE visible
22 Oct ? 20:40:57 10° NNE 20:45:27 76° WNW 20:49:50 10° SSW visible
22 Oct ? 22:19:10 10° NNW 22:21:21 14° NW 22:23:32 10° W visible
23 Oct ? 06:08:44 10° ESE 06:12:44 29° ENE 06:16:42 10° N visible
23 Oct ? 19:30:09 10° NE 19:35:52 19° SE 19:37:33 10° SSE visible
23 Oct ? 21:06:31 10° N 21:13:41 18° SW 21:14:57 10° SW visible
24 Oct ? 06:33:32 10° SE 06:37:58 44° ENE 06:42:23 10° N visible
24 Oct ? 19:55:14 10° NNE 20:02:38 16° SSE 20:03:39 10° S visible
24 Oct ? 21:32:12 10° N 21:40:24 - SW 21:34:39 24° NNW visible
25 Oct ? 05:25:03 10° E 05:27:24 14° NE 05:29:44 10° NNE visible
25 Oct ? 06:58:39 10° SSE 07:03:19 72° ENE 07:07:57 10° N visible
25 Oct?18:51:14SE18:51:14SE18:44:04NEvisible
25 Oct ? 20:20:32 10° NNE 20:28:58 12° S 20:29:20 10° S visible
25 Oct ? 21:58:07 10° NNW 22:06:44 - WSW 21:59:22 15° NNW visible
26 Oct ? 05:49:04 10° ESE 05:52:30 21° ENE 05:55:54 10° N visible
26 Oct?19:17:25SE19:17:25SE19:08:56NEvisible
26 Oct ? 20:45:59 10° N 20:55:09 - SSW 20:46:36 14° N visible
27 Oct ? 06:13:36 10° SE 06:17:41 31° ENE 06:21:44 10° N visible
27 Oct?19:43:29SSE19:43:29SSE19:33:55NNEvisible
27 Oct ? 21:11:34 10° N 21:21:13 - SW 21:11:36 10° N visible
